Date,TemperatureHighF,TemperatureAvgF,TemperatureLowF,DewpointHighF,DewpointAvgF,DewpointLowF,HumidityHigh,HumidityAvg,HumidityLow,PressureMaxIn,PressureMinIn,WindSpeedMaxMPH,WindSpeedAvgMPH,GustSpeedMaxMPH,PrecipitationSumIn
2013-2-1,70,60,48,-100,-100,-100,0,0,100,0.00,40.00,0,-999,0,0.00
2013-2-2,73,62,49,-100,-100,-100,0,0,100,0.00,40.00,0,-999,0,0.00
2013-2-3,69,62,54,-100,-100,-100,0,0,100,0.00,40.00,0,-999,0,0.00
2013-2-4,75,64,59,-100,-100,-100,0,0,100,0.00,40.00,0,-999,0,0.00
2013-2-5,80,66,54,-100,-100,-100,0,0,100,0.00,40.00,0,-999,0,0.00
2013-2-6,73,64,61,-100,-100,-100,0,0,100,0.00,40.00,0,-999,0,0.00
2013-2-7,76,64,60,-100,-100,-100,0,0,100,0.00,40.00,0,-999,0,0.00
2013-2-8,67,59,51,-100,-100,-100,0,0,100,0.00,40.00,0,-999,0,0.00
2013-2-9,68,59,55,-100,-100,-100,0,0,100,0.00,40.00,0,-999,0,0.00
2013-2-10,69,66,60,-100,-100,-100,0,0,100,0.00,40.00,0,-999,0,0.00
2013-2-11,62,57,53,-100,-100,-100,0,0,100,0.00,40.00,0,-999,0,0.00
2013-2-12,73,59,53,-100,-100,-100,0,0,100,0.00,40.00,0,-999,0,0.00
2013-2-13,64,50,43,-100,-100,-100,0,0,100,0.00,40.00,0,-999,0,0.00
2013-2-14,67,53,43,-100,-100,-100,0,0,100,0.00,40.00,0,-999,0,0.00
2013-2-15,67,55,47,-100,-100,-100,0,0,100,0.00,40.00,0,-999,0,0.00
2013-2-16,65,54,40,-100,-100,-100,0,0,100,0.00,40.00,0,-999,0,0.00
2013-2-17,69,56,43,-100,-100,-100,0,0,100,0.00,40.00,0,-999,0,0.00
2013-2-18,77,67,61,-100,-100,-100,0,0,100,0.00,40.00,0,-999,0,0.00
2013-2-19,66,58,50,-100,-100,-100,0,0,100,0.00,40.00,0,-999,0,0.00
2013-2-20,68,61,54,-100,-100,-100,0,0,100,0.00,40.00,0,-999,0,0.00
2013-2-21,76,70,62,-100,-100,-100,0,0,100,0.00,40.00,0,-999,0,0.00
2013-2-22,65,56,51,-100,-100,-100,0,0,100,0.00,40.00,0,-999,0,0.00
2013-2-23,70,54,47,-100,-100,-100,0,0,100,0.00,40.00,0,-999,0,0.00
2013-2-24,67,58,48,-100,-100,-100,0,0,100,0.00,40.00,0,-999,0,0.00
2013-2-25,65,59,50,-100,-100,-100,0,0,100,0.00,40.00,0,-999,0,0.00
2013-2-26,65,53,45,-100,-100,-100,0,0,100,0.00,40.00,0,-999,0,0.00
2013-2-27,65,56,47,-100,-100,-100,0,0,100,0.00,40.00,0,-999,0,0.00
2013-2-28,63,53,47,-100,-100,-100,0,0,100,0.00,40.00,0,-999,0,0.00